Find Kuiper-00188

NORAD ID: 67142 Int'l Des: 2025-301 Owner: KUIP Country: US Constellation: amazon-leo operational
LEOCIRCULAR

当前视图

正在加载3D地球...

About Kuiper-00188

Kuiper-00188 (NORAD 67142) is a amazon-leo constellation satellite launched Dec 16, 2025 by KUIP of US. It operates in LEO, CIRCULAR orbit with a mass of 490.00 kg.

关于 Kuiper-00188

正在加载描述...

即将过境

Passes for default location (London). Set your location on the main map for personalized predictions.

高度历史

Loading altitude history...

两行轨道根数

1 67142U 25301K 26170.14147799 .00002927 00000-0 41274-3 0 9990
2 67142 51.9040 319.6229 0000541 103.3466 256.7556 14.79933137 28997
Epoch: Jun 19, 2026 • Age: 4 hours

当前状态

高度 647.8 km
速度 7.53 km/s
星下点 -52.04°S, 158.34°W
发射日期 Dec 16, 2025
运行时间 0.5 years
类型 internet

技术详情

分类 Payload
质量 490.00 kg
干质量 490.00 kg
总质量 490.00 kg
长度 1.80 m
直径 0.70 m
跨度 5.00 m
形状 Box + 2 pan
制造商 KUIP
平台类型 Kuiper
阶段状态 In Orbit
所有者/国家 KUIP/US

Most Searched